CST,Max TemperatureF,Mean TemperatureF,Min TemperatureF,Max Dew PointF,MeanDew PointF,Min DewpointF,Max Humidity, Mean Humidity, Min Humidity, Max Sea Level PressureIn, Mean Sea Level PressureIn, Min Sea Level PressureIn, Max VisibilityMiles, Mean VisibilityMiles, Min VisibilityMiles, Max Wind SpeedMPH, Mean Wind SpeedMPH, Max Gust SpeedMPH,PrecipitationIn, CloudCover, Events, WindDirDegrees
2013-2-1,79,75,71,74,72,71,100,87,71,30.13,30.09,30.04,12,7,3,10,7,,0.04,6,Rain,7
2013-2-2,80,76,72,74,73,72,100,92,79,30.11,30.06,30.02,12,6,2,13,6,,0.39,6,Rain,62
2013-2-3,80,75,70,74,72,71,100,87,73,30.12,30.05,29.99,12,8,6,15,8,,0.04,5,Rain,15
2013-2-4,79,74,70,74,72,70,100,90,79,30.05,29.98,29.91,12,8,5,8,4,,0.20,6,Rain,12
2013-2-5,84,78,71,75,73,70,100,81,64,29.99,29.94,29.89,16,9,6,8,3,,0.00,2,Rain,126
2013-2-6,83,78,72,75,74,72,94,82,66,30.02,29.96,29.92,12,8,6,100,7,,0.00,3,Rain,90
2013-2-7,85,80,74,75,74,72,100,79,61,29.98,29.93,29.88,16,9,6,9,6,,0.00,4,,113
2013-2-8,83,78,73,77,74,72,96,84,70,30.03,29.97,29.90,16,10,6,12,4,,0.00,3,,94
2013-2-9,84,76,69,75,71,68,100,78,57,30.07,30.02,29.98,16,9,6,12,4,,0.00,2,,83
2013-2-10,85,78,72,73,72,70,89,74,56,30.07,30.01,29.95,16,9,6,10,5,,0.00,3,,118
2013-2-11,86,81,76,76,74,73,89,76,64,30.03,29.98,29.93,16,8,6,14,9,21,0.00,3,,112
2013-2-12,86,82,77,77,74,72,94,74,56,30.01,29.95,29.88,16,9,6,10,6,,0.00,1,,125
2013-2-13,86,82,77,76,74,73,89,75,59,29.91,29.86,29.81,19,9,6,12,7,,0.00,2,,121
2013-2-14,86,80,73,79,75,73,97,86,61,29.94,29.90,29.84,12,8,1,9,2,,1.54,3,Fog,329
2013-2-15,87,80,72,75,73,72,96,80,58,29.98,29.92,29.86,12,7,1,8,4,,0.00,3,Fog,316
2013-2-16,84,78,73,74,70,61,97,74,48,30.12,30.02,29.91,12,8,6,16,8,,0.00,6,,357
2013-2-17,77,70,62,66,58,54,86,62,43,30.25,30.17,30.12,16,9,6,12,8,,0.00,1,,16
2013-2-18,80,72,63,72,65,58,94,75,44,30.13,30.06,29.99,16,9,6,13,5,,0.00,4,Rain,107
2013-2-19,84,78,71,74,72,70,94,80,63,30.03,29.99,29.96,16,8,6,12,5,,0.00,4,Rain,71
2013-2-20,84,76,69,75,73,69,100,81,64,30.02,29.95,29.90,19,9,6,12,4,,0.08,3,Rain,77
2013-2-21,86,80,74,75,74,72,94,75,56,29.94,29.88,29.84,19,9,6,13,9,,0.00,2,,108
2013-2-22,86,82,77,82,75,72,90,79,56,29.95,29.89,29.84,16,9,6,12,7,,0.00,1,,114
2013-2-23,86,81,76,78,74,72,94,77,58,29.91,29.86,29.81,16,9,6,12,7,,0.00,2,,124
2013-2-24,87,82,76,77,75,73,94,78,65,29.90,29.84,29.77,12,8,6,10,5,,0.00,3,,91
2013-2-25,87,82,77,77,75,73,89,77,65,29.83,29.70,29.62,16,9,6,9,6,,0.00,2,,123
2013-2-26,92,82,73,79,75,72,100,83,52,29.88,29.80,29.71,16,7,0,10,3,,0.00,3,Fog,293
2013-2-27,87,80,73,77,74,72,100,82,66,29.94,29.88,29.83,12,8,6,9,4,,0.00,4,Rain,344
2013-2-28,87,80,73,77,75,73,100,81,64,29.98,29.92,29.86,12,7,4,9,3,,0.00,4,,125